Location: Enborne
(51.3833°N, 1.3667°W)
Time: 16:01:01
(UTC+00:00)

Cosmos 1125 Rocket - Pass Details

Date: 18 September 2020
Orbit: 758 x 779 km, 74.0° (Epoch: 31 October)

Event Time Altitude Azimuth Distance (km) Brightness Sun altitude
Rises 20:38:41 0° 201° (SSW) 3,247 6.6 -22.3°
Reaches altitude 10° 20:41:03 10° 201° (SSW) 2,325 5.9 -22.7°
Maximum altitude 20:46:21 86° 113° (ESE) 789 3.4 -23.3°
Drops below altitude 10° 20:51:42 10° 26° (NNE) 2,345 6.1 -24.0°
Sets 20:54:06 0° 26° (NNE) 3,276 6.9 -24.3°
